ALK884 VCBI-ZGGG

Flight info

Callsign ALK884
Flight time N/A
Altitude 39000
Route DORTA2D ESPAP P762 DWI L301 BKK Y20 KRT B460 SAV A202 VILAO/K0796F390 A202 ASSAD/K0789S1130 A202 SIKOU/N0423F390 A202 BIGEX A461 IDUMA IDUMA9
Aircraft A20N/M-SDE2E3FGHIRWXY/LB1

Departure

Time 2026-04-25 05:16
Airport Bandaranaike International Colombo Airport (VCBI)

Arrival

Time N/A
Airport Guangzhou Baiyun International Airport (ZGGG)
Time Latitude Longitude Altitude Speed Heading
2026-04-25 05:03 7.17615 79.88567 30 ft 0 kts 217°
2026-04-25 05:05 7.17621 79.88572 30 ft 3 kts 217°
2026-04-25 05:05 7.17636 79.88583 30 ft 3 kts 217°
2026-04-25 05:05 7.17651 79.88595 30 ft 3 kts 217°
2026-04-25 05:05 7.17666 79.88606 30 ft 3 kts 217°
2026-04-25 05:06 7.17680 79.88618 30 ft 3 kts 217°
2026-04-25 05:06 7.17693 79.88629 30 ft 3 kts 244°
2026-04-25 05:06 7.17696 79.88648 30 ft 3 kts 284°
2026-04-25 05:06 7.17693 79.88657 30 ft 0 kts 306°
2026-04-25 05:09 7.17697 79.88652 30 ft 3 kts 306°
2026-04-25 05:09 7.17719 79.88621 30 ft 7 kts 307°
2026-04-25 05:10 7.17745 79.88586 30 ft 6 kts 307°
2026-04-25 05:10 7.17769 79.88554 30 ft 6 kts 307°
2026-04-25 05:10 7.17791 79.88525 30 ft 5 kts 307°
2026-04-25 05:10 7.17814 79.88495 30 ft 7 kts 306°
2026-04-25 05:11 7.17849 79.88446 30 ft 10 kts 299°
2026-04-25 05:11 7.17824 79.88377 30 ft 13 kts 221°
2026-04-25 05:11 7.17746 79.88318 31 ft 14 kts 216°
2026-04-25 05:12 7.17595 79.88204 31 ft 14 kts 217°
2026-04-25 05:12 7.17516 79.88142 30 ft 15 kts 217°
2026-04-25 05:12 7.17435 79.88081 30 ft 14 kts 220°
2026-04-25 05:12 7.17356 79.88020 30 ft 14 kts 214°
2026-04-25 05:13 7.17275 79.87966 30 ft 13 kts 210°
2026-04-25 05:13 7.17203 79.87911 30 ft 13 kts 218°
2026-04-25 05:13 7.17138 79.87853 30 ft 12 kts 217°
2026-04-25 05:13 7.17071 79.87803 30 ft 12 kts 217°
2026-04-25 05:14 7.17006 79.87754 30 ft 11 kts 217°
2026-04-25 05:14 7.16943 79.87707 30 ft 11 kts 217°
2026-04-25 05:14 7.16885 79.87662 30 ft 10 kts 218°
2026-04-25 05:15 7.16861 79.87558 31 ft 10 kts 306°
2026-04-25 05:15 7.16905 79.87496 32 ft 10 kts 319°
2026-04-25 05:15 7.17054 79.87563 31 ft 52 kts 38°
2026-04-25 05:15 7.17507 79.87912 33 ft 111 kts 37°
2026-04-25 05:16 7.18260 79.88486 31 ft 159 kts 37°
2026-04-25 05:16 7.19180 79.89171 401 ft 163 kts 37°
2026-04-25 05:16 7.20070 79.89867 882 ft 163 kts 49°
2026-04-25 05:16 7.20561 79.90866 1320 ft 164 kts 90°
2026-04-25 05:17 7.20489 79.92035 1665 ft 177 kts 105°
2026-04-25 05:17 7.20309 79.93382 1874 ft 212 kts 92°
2026-04-25 05:17 7.20382 79.94987 2059 ft 246 kts 81°
2026-04-25 05:17 7.20666 79.96728 2655 ft 254 kts 82°
2026-04-25 05:18 7.20873 79.98495 3507 ft 256 kts 83°
2026-04-25 05:18 7.21092 80.00293 4199 ft 262 kts 82°
2026-04-25 05:18 7.21337 80.02143 4750 ft 269 kts 82°
2026-04-25 05:18 7.21603 80.04012 4954 ft 270 kts 81°
2026-04-25 05:19 7.21879 80.05885 4991 ft 271 kts 81°
2026-04-25 05:19 7.22158 80.07764 5060 ft 272 kts 81°
2026-04-25 05:19 7.22440 80.09656 5568 ft 274 kts 81°
2026-04-25 05:19 7.22724 80.11554 6387 ft 274 kts 81°
2026-04-25 05:20 7.23010 80.13456 7137 ft 276 kts 81°
2026-04-25 05:20 7.23300 80.15378 7828 ft 280 kts 81°
2026-04-25 05:20 7.23593 80.17326 8543 ft 284 kts 81°
2026-04-25 05:20 7.23890 80.19301 9272 ft 287 kts 81°
2026-04-25 05:21 7.24188 80.21273 9949 ft 290 kts 81°
2026-04-25 05:21 7.24498 80.23317 10389 ft 303 kts 81°
2026-04-25 05:21 7.24829 80.25502 10662 ft 320 kts 81°
2026-04-25 05:21 7.25172 80.27766 11012 ft 333 kts 81°
2026-04-25 05:22 7.25518 80.30061 11480 ft 339 kts 81°
2026-04-25 05:22 7.25875 80.32420 12042 ft 342 kts 81°
2026-04-25 05:22 7.26235 80.34800 12651 ft 345 kts 81°
2026-04-25 05:22 7.26597 80.37202 13246 ft 349 kts 81°
2026-04-25 05:23 7.26963 80.39627 13830 ft 351 kts 81°
2026-04-25 05:23 7.27332 80.42067 14361 ft 354 kts 81°
2026-04-25 05:23 7.27880 80.44489 14911 ft 356 kts 73°
2026-04-25 05:23 7.28674 80.46860 15485 ft 358 kts 71°
2026-04-25 05:24 7.29529 80.49225 16075 ft 360 kts 70°
2026-04-25 05:24 7.30395 80.51600 16632 ft 363 kts 71°
2026-04-25 05:24 7.31264 80.53994 17133 ft 365 kts 71°